Regional Weather Roundup
Issued by NWS

Home | Current Version | Previous Version | Text Only | Print | Product List | Glossary Off
Versions: 1 2 3 4 5 6 7 8 9 10 11 12 13 14 15 16 17 18 19 20 21 22 23 24 25 26 27 28 29 30 31 32 33 34 35 36 37 38 39 40 41 42 43 44 45 46 47 48 49 50

000
ASUS45 KTFX 021619
RWRMT
MONTANA HOURLY WEATHER ROUNDUP
NATIONAL WEATHER SERVICE GREAT FALLS MT
919 AM MST MON MAR 2 2015

NOTE: "FAIR" INDICATES FEW OR NO CLOUDS BELOW 12000 FEET WITH NO
SIGNIFICANT WEATHER AND/OR OBSTRUCTIONS TO VISIBILITY.

* THESE STATIONS ARE NOT UNDER NWS QUALITY CONTROL. THEY DO NOT
   REPORT WEATHER SUCH AS PRECIPITATION OR FOG.

MTZ001>007-043-021700-
WEST OF THE DIVIDE
CITY           SKY/WX    TMP DP  RH WIND       PRES   REMARKS
KALISPELL      CLOUDY    23  14  68 NW5       29.89S WCI  16
MISSOULA       CLOUDY    21  14  74 CALM      29.91S
BUTTE          PTCLDY    16   7  67 CALM      29.82S
MULLAN PASS    CLOUDY    25   7  46 CALM      29.76R
* ANACONDA     SUNNY     21   9  60 NW3        N/A
* ESSEX        N/A       18   8  65 SE5        N/A   WCI  11
* EUREKA APT   CLOUDY    27  12  53 CALM      29.94R
* HAMILTON APT PTCLDY    28  14  56 CALM      29.87S
* LIBBY APT    CLOUDY    25  18  75 CALM      29.93R
* LINCOLN      N/A        8   3  80 N/A        N/A
* LOOKOUT PASS N/A       21  10  62 S2         N/A
* POLSON       N/A       25  19  78 N1         N/A
* RONAN APT    CLOUDY    27  19  72 N/A        N/A
* SEELEY LAKE  N/A        5   0  80 N/A        N/A
* THOMP F APT  CLOUDY    20  -3  36 NE1G10     N/A
$$

MTZ008-052>055-021700-
SOUTHWEST MONTANA
CITY           SKY/WX    TMP DP  RH WIND       PRES   REMARKS
BOZEMAN        SUNNY     21   9  60 CALM      29.85S
DILLON         SUNNY     19   3  49 W5        29.82R WCI  12
* W YELLOWSTON SUNNY     -3  -9  75 SW1        N/A
* THREE FORKS  PTCLDY    18  14  84 N/A        N/A
* BOULDER HILL N/A       21   2  43 S8         N/A   WCI  11
* MONIDA PASS  N/A       13  -1  53 W4         N/A
* RAYNOLDS PAS N/A        8  -6  52 S4         N/A
* WHITEHALL    N/A       16   6  64 NW3G11     N/A
* WISE RIVER   N/A        7  -1  69 W4         N/A
$$

MTZ009>010-012-014-046-048-049-054-021700-
EAST SLOPES AND CENTRAL MONTANA
CITY           SKY/WX    TMP DP  RH WIND       PRES   REMARKS
CUT BANK       FOG       28  25  89 N17       29.87R WCI  16
GREAT FALLS    CLOUDY    32  14  47 N10       29.86R WCI  24
MALMSTROM AFB  PTCLDY    32  18  56 N15G20    29.87R WCI  22
* CONRAD       CLOUDY    27  19  72 W10G15     N/A   WCI  18
* DEARBORN     N/A       28  11  49 S2         N/A
* EAST GLACIER N/A       22  19  88 NE14       N/A   WCI   9
* MONARCH      N/A       28   5  37 W11G23     N/A   WCI  18
* PENDROY      N/A       26  19  75 VRB15G23    N/A   WCI  14
* ROGERS PASS  N/A       24   4  42 E1G6       N/A
* SWEET GRASS  N/A       25  25 100 N20G26     N/A   WCI  11
* WHITE SULPH  N/A       21   4  48 S4         N/A
$$

MTZ011-013-016-021-035-040-045-047-050-051-021700-
NORTH CENTRAL MONTANA
CITY           SKY/WX    TMP DP  RH WIND       PRES   REMARKS
HAVRE          PTCLDY    27  18  69 W15       29.83R WCI  15
LEWISTOWN      PTCLDY    28  14  56 W7        29.81R WCI  21
* CHINOOK      PTCLDY    28  18  66 W18G25    29.82R WCI  15
* FORT BENTON  PTCLDY    32  19  59 W10       29.89R WCI  24
* CHESTER      N/A       28  21  75 N14G26     N/A   WCI  17
* DENTON       N/A       31  13  47 NW2        N/A
* GEYSER       N/A       32  12  43 W11G17     N/A   WCI  23
* JUDITH GAP   N/A       34  10  37 NW14G19    N/A   WCI  24
* LOMA         N/A       25  16  69 SW6        N/A   WCI  18
$$

MTZ017>020-022>027-061-062-021700-
NORTHEAST MONTANA
CITY           SKY/WX    TMP DP  RH WIND       PRES   REMARKS
GLASGOW        SUNNY     21  10  62 SE12      29.80F WCI   9
GLENDIVE       SUNNY     21  12  68 S15       29.86F WCI   7
JORDAN         PTCLDY    28  14  56 SW12      29.78F WCI  18
SIDNEY         SUNNY     25  12  58 S14       29.89F WCI  13
WOLF POINT     SUNNY     25  12  58 S9        29.84F WCI  16
* BEAVER HILL  N/A       23  11  60 S20G26     N/A   WCI   8
* CIRCLE       N/A       25  15  66 SW10G15    N/A   WCI  15
* LINDSAY DVD  N/A       17  12  81 S11        N/A   WCI   4
* NAVAJO       N/A       16   9  74 SW16       N/A   WCI   1
* PLENTYWOOD A PTCLDY    18   9  68 S20       29.81F WCI   2
* POPLAR APT   PTCLDY    25  10  53 S8        29.85F WCI  16
* SACO         N/A       20  11  68 SE3        N/A
* SCOBEY APT   SUNNY     18   5  57 S6         N/A   WCI  10
$$

MTZ028>042-056>058-021700-
SOUTHCENTRAL AND SOUTHEAST MONTANA
CITY           SKY/WX    TMP DP  RH WIND       PRES   REMARKS
BAKER          SUNNY     21  10  62 S13       29.87F WCI   8
BILLINGS       SUNNY     28  12  51 SW13      29.81F WCI  17
LIVINGSTON     SUNNY     21   9  60 NW16G23   29.80S WCI   7
MILES CITY     SUNNY     21  10  62 S9        29.85F WCI  11
* BIG TIMBER A SUNNY     25  10  53 SW3       29.81F
* FORSYTH APT  SUNNY     27  14  58 CALM      29.85S
* LAUREL APT   SUNNY     30  10  43 S9         N/A   WCI  22
* ROUNDUP APT  PTCLDY    27   7  42 S14G20     N/A   WCI  16
* ALZADA       N/A       16  11  81 SE2        N/A
* HYSHAM       N/A       25   7  46 W11        N/A   WCI  14
* LAME DEER    N/A       27   8  44 S5         N/A   WCI  21
* REED POINT   N/A       17  14  88 E2         N/A
* ROSCOE HILL  N/A       27  -2  28 NE2        N/A
$$

REGIONAL REPORTS...DAKOTAS
CITY           SKY/WX    TMP DP  RH WIND       PRES   REMARKS
WILLISTON      PTCLDY    21  10  62 S15       29.89F WCI   7
DICKINSON      SUNNY     21  12  68 S25       29.88F WCI   4
BEACH          SUNNY     19  12  74 S20G25    29.86F WCI   3
CROSBY         SUNNY     18  10  71 S20G26    29.86F WCI   2
TIOGA          SUNNY     14  12  92 S18G23    29.90F WCI  -3
WATFORD CITY   SUNNY     23  10  57 S21G28    29.88F WCI   8
BISMARCK       PTCLDY    19  12  74 S15       30.09F WCI   5
GRAND FORKS    PTSUNNY   10   3  73 S10       30.29F WCI  -4
FARGO          SUNNY     18   9  68 S9        30.33F WCI   7
BUFFALO SD     SUNNY     21  12  68 S14       29.83F WCI   8
RAPID CITY     SUNNY     30  19  64 S20G26    29.90F WCI  17
$$

REGIONAL REPORTS...WYOMING/IDAHO/WASHINGTON
CITY           SKY/WX    TMP DP  RH WIND       PRES   REMARKS
GILLETTE       PTSUNNY   25  18  75 S15       29.84F WCI  13
SHERIDAN       PTCLDY    18   9  68 NW5       29.83F WCI  11
CODY           SUNNY     27  16  63 CALM      29.81F
YELLOWSTONE LA PTCLDY     3  -2  79 CALM      29.82F
SALMON         SUNNY     21  14  74 CALM      29.88S
MULLAN PASS    CLOUDY    25   7  46 CALM      29.76S
SAND POINT     CLOUDY    28  21  75 CALM      29.92R
SPOKANE        CLOUDY    30  16  56 NE3       29.89R
$$

REGIONAL REPORTS...ALBERTA
CITY           SKY/WX    TMP DP  RH WIND       PRES   REMARKS
CALGARY        SNOW      19  12  74 N33G41    29.98R VSB 3    WCI  -1
LETHBRIDGE     LGT SNOW  28  23  81 NW20G25   29.92R WCI  15
MEDICINE HAT   CLOUDY    27  23  85 NW16G28   29.87R WCI  15
EDMONTON       LGT SNOW  19  14  81 N33G41    30.07R VSB 1/2  WCI  -1
WATERTON GATE  N/A       25  23  92 NE15       N/A   WCI  13
CARDSTON       N/A       25  25 100 N16G24     N/A   WCI  12
MILK RIVER     N/A       27  25  92 N21G29     N/A   WCI  13
$$

REGIONAL REPORTS...SASKATCHEWAN
CITY           SKY/WX    TMP DP  RH WIND       PRES   REMARKS
SWIFT CURRENT  SUNNY     19  12  74 W18G24    29.69R WCI   4
MOOSE JAW      SNOW      18  10  71 S22G28    29.71F WCI   1
REGINA         SNOW       9   5  84 SE16      29.78F WCI  -8
VAL MARIE      N/A       21  12  68 SW12       N/A   WCI   9
ASSINIBOIA     N/A       19   9  65 SW9        N/A   WCI   8
CORONACH       N/A       18  10  71 S17G23     N/A   WCI   3

$$




USA.gov is the U.S. government's official web portal to all federal, state and local government web resources and services.